Wind_Speed
37 37 36 35 35 34 34 33 32 32 32 32 32 31 30 31 31 30 30 30 30 29 29 29 29 30 30 30 30 30 30 31 32 33 34 34 35 36 36 36 37 38 38 38
38 37 36 36 36 36 35 34 33 33 33 33 33 32 31 31 31 31 31 30 30 30 29 29 30 29 29 29 29 30 30 31 32 33 33 34 34 35 35 36 37 38 38 39
38 38 37 37 37 37 36 34 33 34 34 34 34 33 32 31 31 31 30 30 30 29 29 29 29 29 29 29 29 30 30 30 31 31 32 33 33 34 35 36 37 37 38 38
39 39 38 38 37 37 36 35 35 35 35 35 35 34 32 32 31 30 29 29 29 29 29 29 29 29 29 29 29 30 30 30 30 30 31 32 33 33 34 35 36 37 37 37
40 39 39 39 37 37 36 36 36 36 36 36 35 36 32 31 30 29 28 29 29 29 29 29 29 29 29 29 29 30 30 29 30 30 31 32 33 33 34 35 35 36 36 37
39 40 40 39 38 38 37 37 37 37 37 38 35 35 33 30 29 28 28 28 29 29 29 29 30 30 30 30 30 30 30 30 30 31 32 32 32 33 34 35 35 35 35 36
38 39 40 40 39 38 37 37 37 37 38 38 35 35 33 30 29 28 29 29 29 29 29 29 29 30 30 30 30 30 30 30 31 31 31 32 32 33 34 34 34 35 36 36
39 39 40 40 39 38 37 37 37 37 37 36 36 35 33 30 28 28 28 29 29 29 29 29 29 30 29 29 29 30 30 30 31 31 32 32 33 33 33 34 34 35 36 37
39 39 39 39 38 38 38 38 36 37 37 36 36 35 32 30 28 28 28 28 29 29 29 29 30 30 30 30 29 29 30 30 31 31 32 33 33 33 34 34 35 35 35 36
38 39 38 38 39 38 37 36 36 36 36 36 36 35 32 30 28 28 27 28 28 29 29 29 29 30 30 30 30 30 31 31 31 32 33 33 34 34 34 35 35 35 34 35
37 39 39 39 39 38 38 36 36 36 36 35 35 34 31 29 28 27 27 27 28 28 28 28 29 29 29 30 30 31 31 32 32 33 33 34 35 35 35 36 35 35 35 35
35 37 38 38 38 37 37 37 36 35 35 35 35 34 31 29 28 28 27 26 26 27 27 28 28 28 29 29 30 31 31 32 33 33 33 34 35 35 35 35 35 34 34 33
33 35 36 37 37 37 37 37 37 36 36 35 34 34 31 30 28 27 27 26 26 26 27 27 27 27 28 28 29 30 31 32 32 32 33 34 34 34 34 34 33 32 31 31
35 34 35 35 36 36 36 36 36 37 36 35 34 32 30 29 29 28 27 26 26 26 26 27 26 26 27 27 28 28 29 30 31 32 33 33 34 34 33 32 31 30 29 29
34 35 35 35 35 35 36 37 37 36 36 35 34 32 30 29 29 28 27 26 27 27 27 26 26 26 26 27 27 27 28 29 30 30 31 31 32 31 30 29 28 28 28 27
32 33 34 34 35 35 35 35 36 36 36 35 35 33 31 30 29 28 28 27 27 27 27 26 26 26 27 27 27 27 27 28 28 29 30 30 30 28 27 27 27 27 26 26
30 31 32 32 32 33 34 34 33 34 34 35 35 33 31 30 30 29 29 28 28 27 27 26 26 26 27 26 26 27 27 27 28 28 28 28 27 26 26 26 26 26 26 26
29 30 31 30 31 32 31 31 32 32 33 34 34 32 32 31 30 30 30 30 30 28 27 27 26 27 27 26 26 27 27 27 27 27 27 26 25 25 25 25 26 25 25 26
28 29 29 30 31 31 30 30 30 31 31 32 32 32 32 31 30 30 30 30 29 29 28 28 27 27 27 27 26 26 26 26 26 26 25 24 24 24 25 25 25 25 25 25
28 28 29 29 30 30 29 29 29 30 30 30 31 31 31 31 30 29 29 29 28 28 28 27 27 26 26 27 26 26 25 25 25 24 24 24 24 23 24 24 24 24 24 24
26 28 28 28 29 30 29 28 29 29 29 29 30 30 30 30 30 30 29 29 28 27 27 27 27 26 26 26 26 25 25 24 24 24 24 24 24 23 23 23 23 23 23 24
25 25 26 28 29 29 29 29 29 28 28 28 28 29 29 29 29 30 30 28 28 27 26 27 26 26 25 25 25 24 24 24 24 24 23 23 22 22 21 21 22 22 22 22
24 25 25 25 26 26 27 28 28 27 27 26 27 27 28 28 28 29 29 28 27 26 25 25 25 25 25 24 23 23 22 22 22 21 21 21 21 20 20 21 21 22 22 22
23 24 25 25 24 25 26 27 28 28 27 26 26 27 27 28 28 28 28 27 27 25 24 25 25 25 25 24 23 22 22 22 22 21 21 21 21 21 20 21 21 20 21 21
23 24 25 24 24 25 25 26 27 27 27 26 26 26 26 26 27 27 27 26 26 25 25 24 24 24 24 23 23 22 21 21 21 21 20 20 20 20 20 21 21 20 21 21
24 24 25 24 25 25 25 25 26 27 28 27 26 26 26 26 25 26 26 25 25 24 23 23 23 23 23 22 22 21 21 20 20 20 19 19 20 20 20 21 21 21 22 21
Wind_Direction
234 234 234 234 235 236 237 238 240 240 240 240 240 239 238 239 239 241 242 244 247 249 250 252 254 256 259 261 264 266 267 269 271 272 273 273 274 276 279 281 281 280 279 279
233 233 234 234 235 236 237 238 239 240 240 241 241 239 238 239 240 241 243 245 247 248 250 253 256 258 261 263 265 267 269 271 272 273 274 274 275 277 279 282 281 280 280 280
234 233 233 234 235 236 237 238 239 240 241 242 243 240 239 240 242 243 244 246 248 249 251 253 256 259 261 263 266 268 270 272 273 274 274 275 276 278 280 282 282 281 281 280
233 232 232 233 234 236 237 237 239 240 241 241 243 243 238 240 241 243 244 246 248 249 251 253 256 259 261 264 267 269 271 272 274 275 276 277 277 279 281 282 283 283 282 281
233 232 231 232 232 234 236 236 238 239 241 242 242 245 239 240 240 242 245 248 249 250 252 254 257 259 261 264 268 270 271 273 275 277 278 279 279 280 282 283 284 283 283 282
233 232 231 231 231 232 234 235 237 239 241 242 241 244 241 239 239 242 246 248 249 251 253 256 258 260 263 266 269 270 272 274 276 277 278 280 280 281 282 283 284 284 284 284
232 231 231 230 231 231 232 235 237 239 240 242 241 243 242 240 240 242 245 247 249 252 254 256 258 260 263 266 269 271 272 274 276 278 278 280 281 282 283 284 285 285 285 284
233 231 230 230 231 232 233 234 237 240 241 242 242 242 242 242 242 244 247 249 250 253 255 257 259 261 263 265 267 269 272 274 276 277 279 281 282 283 283 284 286 287 287 286
233 232 230 229 229 230 232 233 236 239 241 242 242 242 243 243 245 246 248 250 252 254 256 257 259 262 263 265 267 269 272 275 277 279 280 282 282 283 284 284 286 288 289 288
232 232 230 229 228 229 231 232 232 235 238 240 242 243 243 244 246 248 251 253 253 254 256 258 260 262 264 265 267 270 272 274 277 279 280 282 283 284 284 284 286 287 288 288
229 230 229 228 228 229 229 230 231 233 236 239 242 244 245 247 248 251 253 254 253 254 256 259 261 263 264 266 269 270 273 275 278 280 281 283 284 285 284 284 285 285 286 287
227 228 229 229 229 229 229 229 230 233 235 238 242 244 245 248 250 252 253 253 253 254 257 259 260 262 264 267 270 272 274 276 279 281 282 284 284 285 285 284 284 284 284 285
224 226 227 228 228 227 228 228 229 231 234 236 239 243 245 248 250 252 252 251 252 255 257 259 260 262 264 267 270 272 275 277 279 280 282 283 284 286 285 284 282 283 283 284
226 226 227 227 228 228 228 227 229 231 233 235 238 243 245 247 248 250 250 249 251 253 256 259 260 263 266 268 270 272 276 278 280 281 282 284 285 286 285 284 281 281 282 285
229 229 228 228 228 228 228 227 228 231 232 236 238 241 242 244 246 247 247 247 249 252 256 258 261 263 266 268 271 275 278 281 283 284 285 287 288 287 285 283 280 281 283 285
231 232 230 229 230 230 229 228 229 230 232 235 237 239 240 242 244 246 246 247 248 252 255 258 261 264 267 269 273 276 279 281 284 285 286 288 289 287 283 281 280 280 283 284
230 230 229 229 229 231 230 229 231 233 234 236 239 240 240 241 243 244 245 245 247 250 253 256 260 263 266 271 274 276 278 280 283 285 287 288 288 286 282 279 280 281 283 283
228 227 227 227 227 228 227 228 230 232 233 235 237 239 240 240 241 242 243 245 247 250 253 257 260 262 266 269 273 277 279 282 284 286 287 287 288 286 282 279 279 281 282 282
227 224 224 226 229 229 228 228 229 231 233 235 237 238 240 241 242 243 244 247 249 252 254 256 259 262 265 268 273 275 277 281 285 286 286 286 288 287 284 282 281 282 283 283
227 226 227 228 231 231 230 229 231 233 235 236 238 239 240 241 242 243 244 247 249 252 254 255 258 261 264 268 272 275 277 279 282 284 285 285 287 287 286 285 283 283 283 283
226 227 228 230 232 234 233 233 234 236 236 238 241 242 241 241 243 243 244 247 248 250 252 255 258 261 264 268 271 274 277 277 279 282 284 284 285 285 284 286 286 283 283 283
227 229 231 232 233 232 234 236 237 238 239 241 242 243 243 244 245 246 247 249 251 252 254 255 258 260 264 267 270 274 276 276 278 281 283 285 284 283 283 285 285 285 285 285
227 229 230 231 232 232 234 236 237 238 239 240 241 242 243 244 245 246 248 248 250 253 254 256 257 259 261 264 269 273 274 275 277 279 283 285 285 284 284 287 287 285 284 284
227 227 229 232 232 232 234 237 238 239 241 242 243 243 243 244 244 246 248 249 249 251 253 256 256 259 260 263 265 268 272 275 277 280 282 285 286 285 284 287 289 287 284 283
229 229 230 232 233 233 235 237 237 238 240 242 243 243 244 245 244 245 247 248 249 250 253 255 256 258 260 260 261 265 270 275 279 280 281 284 285 284 284 285 286 285 284 284
232 232 233 234 235 235 236 238 239 240 241 242 243 242 243 243 243 244 245 246 249 251 253 254 255 256 258 258 259 263 268 273 277 278 280 281 283 285 284 284 286 288 286 284
Height
5683 5688 5692 5697 5699 5702 5705 5708 5711 5714 5716 5718 5721 5724 5727 5729 5731 5734 5736 5738 5740 5741 5742 5743 5744 5745 5746 5746 5746 5746 5746 5745 5744 5743 5742 5741 5740 5738 5736 5734 5732 5729 5727 5725
5675 5679 5684 5687 5690 5694 5697 5700 5704 5707 5709 5711 5713 5716 5720 5722 5724 5727 5729 5731 5732 5734 5735 5736 5737 5738 5738 5738 5738 5738 5737 5736 5735 5734 5732 5731 5730 5729 5727 5724 5722 5719 5717 5715
5666 5672 5675 5678 5682 5685 5689 5693 5696 5698 5701 5703 5706 5709 5713 5715 5717 5720 5722 5723 5725 5727 5728 5729 5730 5730 5730 5731 5730 5730 5729 5728 5726 5725 5723 5722 5721 5719 5717 5715 5712 5710 5707 5704
5655 5661 5665 5669 5673 5677 5681 5685 5687 5690 5692 5695 5698 5700 5706 5708 5710 5712 5715 5716 5718 5719 5720 5721 5722 5723 5723 5723 5722 5721 5720 5719 5717 5716 5715 5713 5712 5710 5708 5706 5703 5700 5697 5694
5647 5651 5656 5660 5665 5668 5672 5675 5679 5681 5683 5686 5690 5692 5698 5700 5703 5705 5707 5709 5710 5711 5713 5714 5714 5715 5715 5714 5714 5712 5711 5710 5709 5707 5706 5704 5703 5701 5699 5696 5693 5690 5687 5684
5637 5641 5646 5651 5655 5659 5663 5667 5670 5672 5674 5678 5683 5684 5689 5693 5696 5698 5700 5701 5702 5703 5705 5706 5706 5706 5706 5706 5705 5704 5703 5702 5701 5699 5698 5696 5694 5692 5690 5687 5684 5680 5678 5675
5627 5631 5636 5641 5646 5650 5654 5659 5662 5663 5666 5670 5675 5676 5681 5686 5688 5690 5692 5693 5694 5696 5697 5697 5698 5698 5698 5698 5697 5696 5694 5693 5692 5690 5688 5686 5684 5682 5679 5677 5674 5671 5668 5665
5617 5622 5628 5632 5637 5642 5646 5650 5654 5657 5660 5663 5665 5668 5675 5678 5680 5682 5684 5685 5686 5688 5688 5689 5689 5690 5690 5689 5688 5687 5686 5685 5683 5681 5679 5677 5675 5672 5670 5667 5664 5661 5658 5656
5608 5613 5619 5623 5628 5633 5636 5640 5646 5648 5651 5654 5657 5662 5667 5670 5672 5674 5676 5677 5678 5679 5680 5680 5681 5681 5681 5681 5680 5679 5677 5676 5674 5672 5670 5668 5665 5663 5660 5657 5655 5652 5648 5646
5598 5603 5609 5614 5618 5623 5628 5632 5636 5639 5642 5645 5649 5654 5658 5662 5664 5666 5668 5669 5670 5671 5672 5672 5672 5672 5672 5672 5671 5669 5668 5666 5665 5663 5661 5659 5656 5653 5650 5647 5645 5642 5639 5636
5589 5594 5599 5604 5609 5615 5620 5624 5627 5631 5634 5639 5642 5648 5650 5653 5655 5658 5659 5660 5662 5663 5663 5664 5664 5663 5663 5662 5662 5660 5659 5657 5656 5653 5651 5649 5646 5643 5640 5637 5635 5632 5630 5627
5580 5585 5589 5595 5601 5605 5610 5615 5620 5624 5627 5630 5634 5641 5642 5644 5647 5649 5651 5652 5653 5655 5655 5655 5655 5655 5654 5654 5653 5651 5650 5648 5646 5644 5641 5639 5636 5633 5630 5627 5625 5623 5620 5618
5571 5576 5581 5586 5593 5596 5600 5606 5611 5615 5618 5621 5625 5633 5634 5636 5638 5641 5643 5644 5646 5646 5647 5647 5647 5646 5646 5645 5644 5642 5640 5638 5636 5634 5632 5629 5626 5623 5620 5617 5615 5613 5611 5610
5563 5568 5573 5578 5583 5588 5593 5598 5602 5605 5609 5613 5618 5623 5626 5628 5630 5632 5634 5636 5637 5638 5639 5639 5639 5638 5638 5636 5635 5633 5632 5629 5627 5625 5622 5620 5617 5614 5611 5608 5605 5604 5603 5602
5555 5560 5564 5569 5574 5578 5584 5589 5593 5597 5601 5605 5610 5613 5617 5619 5621 5623 5625 5628 5629 5630 5631 5631 5631 5631 5629 5628 5627 5625 5623 5621 5618 5616 5613 5611 5607 5604 5601 5599 5598 5597 5596 5595
5547 5552 5557 5562 5566 5570 5574 5579 5584 5588 5593 5597 5600 5604 5608 5610 5612 5615 5617 5619 5621 5622 5623 5623 5623 5623 5622 5620 5619 5617 5615 5613 5610 5608 5605 5602 5599 5596 5594 5592 5591 5591 5590 5589
5540 5545 5550 5554 5558 5562 5567 5572 5576 5581 5585 5589 5592 5597 5598 5601 5604 5607 5609 5610 5612 5613 5614 5615 5615 5615 5614 5613 5611 5609 5607 5605 5602 5600 5597 5594 5591 5589 5587 5586 5585 5585 5584 5583
5534 5538 5542 5547 5552 5556 5563 5565 5569 5572 5576 5579 5583 5587 5590 5593 5595 5597 5599 5602 5604 5605 5607 5607 5607 5607 5606 5605 5603 5602 5599 5597 5595 5593 5590 5587 5585 5583 5581 5580 5580 5579 5578 5577
5528 5532 5536 5540 5544 5548 5554 5558 5561 5564 5568 5571 5574 5578 5581 5584 5587 5589 5591 5593 5596 5597 5598 5599 5599 5599 5599 5598 5596 5594 5592 5591 5588 5586 5584 5581 5579 5577 5576 5575 5574 5573 5572 5571
5522 5526 5530 5534 5537 5542 5548 5551 5553 5558 5561 5564 5566 5569 5572 5575 5579 5582 5584 5586 5588 5589 5590 5591 5592 5591 5591 5590 5589 5587 5586 5584 5582 5580 5578 5576 5574 5572 5571 5570 5568 5567 5566 5566
5516 5519 5523 5527 5530 5534 5540 5543 5546 5551 5554 5557 5559 5561 5564 5568 5571 5574 5575 5578 5580 5581 5582 5583 5584 5584 5584 5583 5582 5580 5579 5578 5576 5574 5572 5570 5568 5567 5566 5564 5563 5562 5561 5560
5510 5514 5517 5520 5524 5530 5532 5535 5539 5542 5546 5548 5551 5554 5557 5560 5562 5565 5567 5569 5571 5573 5574 5575 5576 5576 5576 5576 5575 5574 5573 5572 5570 5568 5566 5565 5563 5562 5561 5559 5558 5556 5555 5554
5504 5508 5511 5515 5520 5522 5524 5527 5531 5534 5538 5540 5543 5546 5549 5552 5554 5556 5559 5561 5563 5565 5566 5567 5568 5569 5569 5569 5569 5568 5567 5565 5564 5562 5561 5560 5558 5556 5555 5554 5553 5552 5550 5549
5499 5502 5505 5508 5511 5514 5517 5520 5523 5526 5530 5533 5536 5539 5541 5544 5546 5548 5551 5553 5555 5557 5558 5559 5560 5561 5561 5562 5562 5561 5560 5560 5559 5557 5556 5555 5553 5552 5550 5549 5548 5547 5546 5545
5493 5495 5498 5501 5504 5507 5510 5512 5516 5519 5522 5525 5528 5531 5533 5536 5538 5540 5543 5545 5547 5549 5550 5552 5553 5554 5554 5554 5555 5554 5554 5554 5553 5552 5551 5549 5548 5547 5546 5544 5543 5542 5541 5540
5487 5490 5492 5495 5498 5500 5503 5506 5508 5511 5514 5517 5520 5523 5525 5528 5530 5532 5535 5537 5539 5541 5542 5544 5545 5546 5547 5547 5548 5548 5548 5548 5547 5546 5545 5544 5543 5542 5541 5539 5538 5536 5536 5534